Weather History for Preston, MN

Change the Weather History Date:

Sunday, April 6, 2014

  Actual Average (KRST) Record (KRST)
Temperature  
Mean Temperature 48 °F 42 °F  
Max Temperature 59 °F 52 °F 89 °F (1991)
Min Temperature 38 °F 33 °F 5 °F (1982)
Degree Days  
Heating Degree Days 16 23  
Month to date heating degree days 144  
Since 1 July heating degree days 7016  
Cooling Degree Days 0 0  
Month to date cooling degree days 0  
Year to date cooling degree days 0  
Moisture  
Dew Point 38 °F    
Average Humidity 68    
Maximum Humidity 93    
Minimum Humidity 52    
Precipitation  
Precipitation 0.01 in 0.09 in 0.80 in (1919)
Month to date precipitation 0.52  
Year to date precipitation 4.09  
Snow  
Snow 0.00 in 0.10 in 2.50 in (1938)
Month to date snowfall 0.9  
Since 1 July snowfall 49.5  
Snow Depth -    
Sea Level Pressure  
Sea Level Pressure 29.93 in    
Wind  
Wind Speed 13 mph (SSW)    
Max Wind Speed 21 mph    
Max Gust Speed 32 mph    
Visibility 10 miles    
Events Rain , Thunderstorm    
T = Trace of Precipitation, MM = Missing Value Source: NWS Daily Summary

Daily Weather History Graph

Daily Weather History Graph

Search for Another Location

Airport:

Trip Planner

Search our weather history database for the weather conditions in past years. The results will help you decide how hot, cold, wet, or windy it might be!

Date:

Astronomy

Apr. 06, 2014 Rise Set
Actual Time 6:41 AM CDT 7:41 PM CDT
Civil Twilight 6:12 AM CDT 8:10 PM CDT
Nautical Twilight 5:37 AM CDT 8:45 PM CDT
Astronomical Twilight 5:00 AM CDT 9:22 PM CDT
Moon 11:36 AM CDT (4/6) 1:43 AM CDT (4/6)
Length of Visible Light 13h 58m
Length of Day
13h 00m
Waxing Crescent, 44% of the Moon is Illuminated
Apr 6
Waxing Crescent
Apr 7
First Quarter
Apr 15
Full
Apr 22
Last Quarter
Apr 29
New

Hourly Weather History & Observations

Time (CDT) Temp. Windchill Dew Point Humidity Pressure Visibility Wind Dir Wind Speed Gust Speed Precip Events Conditions
12:11 AM 38.3 °F 31.9 °F 29.3 °F 70% 30.03 in 10.0 mi South 9.2 mph - N/A   Clear
12:31 AM 39.2 °F 32.5 °F 29.3 °F 68% 30.03 in 10.0 mi SSW 10.4 mph - N/A   Clear
12:51 AM 39.2 °F 32.0 °F 29.7 °F 69% 30.02 in 10.0 mi South 11.5 mph - N/A   Mostly Cloudy
1:11 AM 39.9 °F 32.5 °F 29.3 °F 66% 30.01 in 10.0 mi South 12.7 mph - N/A   Overcast
1:31 AM 40.1 °F 32.0 °F 29.3 °F 65% 30.01 in 10.0 mi South 15.0 mph 20.7 mph N/A   Mostly Cloudy
1:51 AM 40.1 °F 32.4 °F 29.5 °F 66% 30.00 in 10.0 mi South 13.8 mph - N/A   Mostly Cloudy
2:11 AM 40.3 °F 31.9 °F 29.8 °F 66% 30.00 in 10.0 mi South 16.1 mph 23.0 mph N/A   Overcast
2:32 AM 40.1 °F 32.7 °F 30.2 °F 68% 29.99 in 10.0 mi South 12.7 mph 19.6 mph N/A   Overcast
2:51 AM 40.3 °F 31.6 °F 30.2 °F 67% 29.99 in 10.0 mi South 17.3 mph 20.7 mph N/A   Overcast
3:11 AM 40.3 °F 32.6 °F 30.6 °F 68% 29.99 in 10.0 mi SSW 13.8 mph 20.7 mph N/A   Overcast
3:31 AM 40.6 °F 32.7 °F 30.6 °F 67% 29.99 in 10.0 mi SSW 15.0 mph 21.9 mph N/A   Overcast
3:51 AM 40.3 °F 31.9 °F 30.7 °F 69% 29.98 in 10.0 mi SSW 16.1 mph - N/A   Overcast
4:11 AM 39.7 °F 31.9 °F 30.7 °F 70% 29.98 in 10.0 mi SSW 13.8 mph 21.9 mph N/A   Overcast
4:31 AM 39.6 °F 31.7 °F 31.1 °F 72% 29.98 in 10.0 mi SSW 13.8 mph - N/A   Overcast
4:51 AM 39.6 °F 32.5 °F 31.1 °F 72% 29.97 in 10.0 mi SSW 11.5 mph 18.4 mph N/A   Overcast
5:12 AM 39.6 °F 32.1 °F 31.1 °F 72% 29.97 in 10.0 mi SSW 12.7 mph 19.6 mph N/A   Overcast
5:31 AM 39.6 °F 31.7 °F 31.6 °F 73% 29.96 in 10.0 mi SSW 13.8 mph - N/A   Overcast
5:51 AM 39.6 °F 31.0 °F 31.6 °F 73% 29.96 in 10.0 mi SSW 16.1 mph - N/A   Overcast
6:12 AM 39.4 °F 31.4 °F 31.8 °F 74% 29.96 in 10.0 mi SSW 13.8 mph - N/A   Overcast
6:31 AM 39.4 °F 30.7 °F 32.0 °F 75% 29.96 in 10.0 mi SSW 16.1 mph - N/A   Overcast
6:51 AM 39.4 °F 31.1 °F 32.0 °F 75% 29.96 in 10.0 mi SSW 15.0 mph 23.0 mph N/A   Overcast
7:11 AM 39.6 °F 31.3 °F 32.0 °F 74% 29.96 in 10.0 mi SSW 15.0 mph 27.6 mph N/A   Overcast
7:31 AM 39.6 °F 31.7 °F 32.0 °F 74% 29.96 in 10.0 mi SSW 13.8 mph - N/A   Mostly Cloudy
7:52 AM 39.9 °F 32.1 °F 32.0 °F 73% 29.96 in 10.0 mi South 13.8 mph - N/A   Mostly Cloudy
8:11 AM 40.6 °F 32.3 °F 32.0 °F 71% 29.96 in 10.0 mi South 16.1 mph - N/A   Scattered Clouds
8:31 AM 41.4 °F 33.3 °F 32.4 °F 70% 29.96 in 10.0 mi SSW 16.1 mph 24.2 mph N/A   Scattered Clouds
8:52 AM 42.8 °F 34.8 °F 33.1 °F 69% 29.95 in 10.0 mi South 17.3 mph 24.2 mph N/A   Clear
9:11 AM 43.7 °F 35.4 °F 33.3 °F 67% 29.94 in 10.0 mi SSW 19.6 mph 26.5 mph N/A   Clear
9:31 AM 45.0 °F 37.4 °F 34.2 °F 66% 29.94 in 10.0 mi South 18.4 mph 26.5 mph N/A   Clear
9:51 AM 46.8 °F - 34.9 °F 63% 29.95 in 10.0 mi SSW 16.1 mph 21.9 mph N/A   Clear
10:12 AM 48.9 °F - 35.6 °F 60% 29.94 in 10.0 mi SSW 16.1 mph 21.9 mph N/A   Clear
10:31 AM 50.5 °F - 36.3 °F 58% 29.93 in 10.0 mi SW 16.1 mph 21.9 mph N/A   Clear
10:51 AM 51.4 °F - 37.0 °F 58% 29.93 in 10.0 mi SSW 17.3 mph 26.5 mph N/A   Clear
11:11 AM 52.7 °F - 37.8 °F 57% 29.92 in 10.0 mi SW 18.4 mph 26.5 mph N/A   Clear
11:31 AM 54.1 °F - 39.6 °F 58% 29.92 in 10.0 mi SW 19.6 mph 25.3 mph N/A   Clear
11:51 AM 55.4 °F - 39.7 °F 56% 29.91 in 10.0 mi SW 18.4 mph 27.6 mph N/A   Clear
12:11 PM 56.3 °F - 40.3 °F 55% 29.91 in 10.0 mi SW 17.3 mph 26.5 mph N/A   Clear
12:31 PM 56.7 °F - 41.0 °F 56% 29.90 in 10.0 mi SW 20.7 mph 27.6 mph N/A   Clear
12:51 PM 57.7 °F - 42.3 °F 56% 29.90 in 10.0 mi SW 17.3 mph 28.8 mph N/A   Clear
1:11 PM 58.8 °F - 42.3 °F 54% 29.89 in 10.0 mi SW 19.6 mph 28.8 mph N/A   Clear
1:31 PM 59.7 °F - 42.1 °F 52% 29.89 in 10.0 mi SW 19.6 mph 29.9 mph N/A   Clear
1:51 PM 59.7 °F - 42.1 °F 52% 29.88 in 10.0 mi SW 12.7 mph 32.2 mph N/A   Clear
2:12 PM 59.5 °F - 42.1 °F 52% 29.88 in 10.0 mi SW 17.3 mph 28.8 mph N/A   Clear
2:31 PM 58.5 °F - 41.9 °F 54% 29.88 in 10.0 mi SW 17.3 mph 25.3 mph N/A   Scattered Clouds
2:51 PM 59.0 °F - 41.9 °F 53% 29.88 in 10.0 mi WSW 18.4 mph 26.5 mph N/A   Mostly Cloudy
3:12 PM 59.4 °F - 42.8 °F 54% 29.87 in 10.0 mi SW 16.1 mph 24.2 mph N/A   Mostly Cloudy
3:31 PM 59.4 °F - 43.3 °F 55% 29.86 in 10.0 mi SW 18.4 mph 24.2 mph N/A   Mostly Cloudy
3:51 PM 59.9 °F - 42.6 °F 53% 29.86 in 10.0 mi SW 17.3 mph 26.5 mph N/A   Mostly Cloudy
4:12 PM 59.9 °F - 43.9 °F 55% 29.86 in 10.0 mi SW 12.7 mph 23.0 mph N/A   Scattered Clouds
4:31 PM 59.5 °F - 44.1 °F 57% 29.86 in 10.0 mi SSW 12.7 mph 19.6 mph N/A   Mostly Cloudy
4:51 PM 58.8 °F - 42.3 °F 54% 29.86 in 10.0 mi SW 13.8 mph 17.3 mph N/A   Overcast
5:12 PM 57.7 °F - 42.3 °F 56% 29.87 in 10.0 mi WSW 9.2 mph - N/A   Overcast
5:32 PM 57.2 °F - 43.3 °F 60% 29.86 in 10.0 mi SW 12.7 mph - N/A   Overcast
5:51 PM 57.0 °F - 43.5 °F 61% 29.87 in 10.0 mi SW 13.8 mph 18.4 mph N/A Rain Light Rain
6:11 PM 56.3 °F - 43.9 °F 63% 29.87 in 10.0 mi SW 9.2 mph - N/A Thunderstorm Overcast
6:51 PM 53.6 °F - 45.0 °F 73% 29.87 in 10.0 mi South 9.2 mph - N/A   Overcast
7:11 PM 52.9 °F - 44.8 °F 74% 29.87 in 10.0 mi South 12.7 mph - N/A   Overcast
7:32 PM 51.3 °F - 44.6 °F 78% 29.87 in 10.0 mi South 12.7 mph 18.4 mph N/A   Overcast
7:51 PM 50.9 °F - 44.4 °F 78% 29.88 in 10.0 mi South 10.4 mph - N/A   Overcast
8:12 PM 50.2 °F - 44.1 °F 79% 29.89 in 10.0 mi SSW 6.9 mph - N/A   Overcast
8:31 PM 50.0 °F - 44.1 °F 80% 29.89 in 10.0 mi SSW 5.8 mph - N/A Rain Light Rain
8:51 PM 50.0 °F - 43.9 °F 79% 29.90 in 10.0 mi SSW 5.8 mph - N/A Rain Light Rain
9:12 PM 49.3 °F - 44.1 °F 82% 29.90 in 10.0 mi SSW 4.6 mph - N/A   Overcast
9:31 PM 49.3 °F - 43.9 °F 82% 29.91 in 10.0 mi WSW 3.5 mph - N/A   Overcast
9:51 PM 48.4 °F - 43.9 °F 84% 29.92 in 10.0 mi West 4.6 mph - N/A Thunderstorm Overcast
10:12 PM 47.5 °F - 43.9 °F 87% 29.92 in 10.0 mi WSW 4.6 mph - N/A   Overcast
10:31 PM 47.5 °F - 44.1 °F 88% 29.91 in 7.0 mi WSW 5.8 mph - N/A Rain Light Rain
10:51 PM 46.9 °F - 44.1 °F 90% 29.90 in 7.0 mi SW 5.8 mph - 0.01 in   Light Drizzle
11:12 PM 45.5 °F 41.8 °F 43.5 °F 93% 29.90 in 7.0 mi SW 6.9 mph - N/A   Mostly Cloudy
11:31 PM 46.0 °F 42.5 °F 44.1 °F 93% 29.89 in 10.0 mi SSW 6.9 mph - N/A   Mostly Cloudy
11:51 PM 46.6 °F - 44.2 °F 92% 29.89 in 7.0 mi SW 8.1 mph - N/A   Overcast